Regional Weather Roundup
Issued by NWS Little Rock, AR

Home | Current Version | Previous Version | Text Only | Print | Product List | Glossary On
Versions: 1 2 3 4 5 6 7 8 9 10 11 12 13 14 15 16 17 18 19 20 21 22 23 24 25 26 27 28 29 30 31 32 33 34 35 36 37 38 39 40 41 42 43 44 45 46 47 48 49 50
000
ASUS44 KLZK 071305
RWRLZK

WEATHER ROUNDUP FOR ARKANSAS
NATIONAL WEATHER SERVICE LITTLE ROCK AR
800 AM CDT TUE JUL 07 2015

NOTE: "FAIR" INDICATES FEW OR NO CLOUDS BELOW 12,000 FEET WITH NO
SIGNIFICANT WEATHER AND/OR OBSTRUCTIONS TO VISIBILITY.

ARZ001-003-010-029-071400-
NORTHWEST ARKANSAS

CITY           SKY/WX    TMP DP  RH WIND       PRES   REMARKS
FAYETTEVILLE   CLOUDY    76  71  85 S15       29.97R
FORT SMITH     CLOUDY    80  70  71 S8        29.96R
HARRISON       CLOUDY    76  71  85 S12G18    29.98S
BENTONVILLE    CLOUDY    75  70  83 SW7       29.97R
ROGERS         LGT RAIN  75  71  87 SW9       29.98R
SILOAM SPGS    CLOUDY    73  68  83 SW10      29.97S
HIGHFILL       LGT RAIN  75  73  93 S12       29.96S FOG
SPRINGDALE     CLOUDY    77  72  83 S15G22    29.98S
$$

ARZ004-005-016-071400-
NORTH CENTRAL ARKANSAS

CITY           SKY/WX    TMP DP  RH WIND       PRES   REMARKS
BATESVILLE     SUNNY     79  72  78 SE6       30.00R
FLIPPIN        MOSUNNY   79  70  73 SW8       29.94R
MTN HOME       CLOUDY    77  71  82 S9        29.96R
$$

ARZ040-041-071400-
WEST CENTRAL ARKANSAS

CITY           SKY/WX    TMP DP  RH WIND       PRES   REMARKS
MENA           CLOUDY    79  73  83 SW5       30.03R
MOUNT IDA      PTSUNNY   79  72  79 VRB3      30.01R
$$

ARZ009-017-025-026-028-071400-
NORTHEAST ARKANSAS

CITY           SKY/WX    TMP DP  RH WIND       PRES   REMARKS
JONESBORO      PTSUNNY   78  74  87 SW15      30.00R
NEWPORT        PTSUNNY   80  75  84 SW12      30.01R HX  85
WALNUT RIDGE   PTSUNNY   79  72  78 S13       29.98S
BLYTHEVILLE    SUNNY     80  76  87 SW16G23   30.02R HX  86
$$

ARZ022-023-033-042-044-071400-
CENTRAL ARKANSAS

CITY           SKY/WX    TMP DP  RH WIND       PRES   REMARKS
LITTLE ROCK    MOSUNNY   79  72  79 SW10G17   30.02R
N LITTLE ROCK    N/A     76  74  92 SW9       30.02R
JACKSONVILLE   MOSUNNY   79  73  81 SW13G22   30.01R
SEARCY         MOSUNNY   78  74  87 S8        30.02R
HOT SPRINGS    PTSUNNY   78  72  81 SW15G22   30.03R
RUSSELLVILLE   PTSUNNY   79  73  82 S5        29.99R
CLINTON        FAIR      77  77 100 CALM      30.01S
$$

ARZ036-071400-
EAST ARKANSAS

CITY           SKY/WX    TMP DP  RH WIND       PRES   REMARKS
WEST MEMPHIS   SUNNY     78  76  93 SW9       30.03R
$$

ARZ050-053-066-070-073-071400-
SOUTHWEST ARKANSAS

CITY           SKY/WX    TMP DP  RH WIND       PRES   REMARKS
ARKADELPHIA    FAIR      80  77  91 S8        30.03R HX  85
CAMDEN         MOSUNNY   77  72  83 MISG      30.04R
TEXARKANA      MOSUNNY   79  74  84 S14G22    30.02S
EL DORADO      PTSUNNY   77  74  90 S8        30.06R
DE QUEEN       CLOUDY    77  74  90 SW5       30.00R
$$

ARZ056-057-069-071400-
SOUTHEAST ARKANSAS

CITY           SKY/WX    TMP DP  RH WIND       PRES   REMARKS
PINE BLUFF     MOSUNNY   78  73  84 S14       30.04R
STUTTGART      SUNNY     81  73  78 MISG      30.02R HX  85
MONTICELLO     MOSUNNY   79  76  90 S10       30.06R

$$





USA.gov is the U.S. government's official web portal to all federal, state and local government web resources and services.